Etusivu
METAR-TAF:

METAR-TAF

Lentoasemat :

Edson, Alberta, Kanada

Leveyspiiri: 53-35N, Pituuspiiri: 116-28W, korkeus merenpinnasta: 921 m

Tämänhetkinen sää

Tämä raportti tehtiin 32 minuuttia sitten, kello 08.00 UTC
Tuuli 3 kn lännestä
Lämpötila -3°C
Kosteus 42%
Ilmanpaine 1023 hPa
Näkyvyys: 14.5 km
selkeää

METAR: CYET 250800Z AUTO 28003KT 9SM CLR M03/M14 A3020 RMK SLP261

Aika: 02:32 (08:32 UTC)


TAF: puuttuu

Säähavainnot ja -ennusteet yli 4000 lentoasemalta (METAR- ja TAF-raportit).

Käytössä olevat sääasemat on merkitty karttaan keltaisilla ja punaisilla pisteillä.

Aseta hiiri pisteen päälle nähdäksesi sääaseman nimen.

Klikkaa sitten nähdäksesi säähavainnot ja -ennusteet.

Kartan vaihtaminen: klikkaa mustalla rastilla varustettuja vihreitä pisteitä, niin voit zoomata sisään; viivalla varustettua vihreää pistettä, niin voit zoomata ulos tai vihreitä nuolia, niin pääset viereisille kartoille.


METAR-TAF: